TimeEST,TemperatureF,Dew PointF,Humidity,Sea Level PressureIn,VisibilityMPH,Wind Direction,Wind SpeedMPH,Gust SpeedMPH,PrecipitationIn,Events,Conditions,WindDirDegrees,DateUTC
12:15 AM,27.9,23.0,82,30.24,10.0,SE,6.9,-,N/A,,Freezing Rain,130,2013-01-28 05:15:00
12:35 AM,28.2,22.3,78,30.23,7.0,ESE,5.8,-,N/A,Snow,Light Snow,120,2013-01-28 05:35:00
12:56 AM,27.9,22.6,81,30.23,2.5,SE,5.8,-,N/A,Snow,Light Snow,130,2013-01-28 05:56:00
1:15 AM,28.2,23.4,82,30.20,5.0,SE,5.8,-,N/A,Snow,Light Snow,140,2013-01-28 06:15:00
1:35 AM,28.4,24.6,86,30.18,7.0,SE,6.9,-,N/A,Rain,Freezing Rain,140,2013-01-28 06:35:00
1:55 AM,29.1,26.1,88,30.17,7.0,SE,8.1,-,N/A,Rain,Freezing Rain,140,2013-01-28 06:55:00
2:15 AM,29.7,27.1,90,30.16,5.0,SE,6.9,-,N/A,Rain,Freezing Rain,140,2013-01-28 07:15:00
2:35 AM,30.2,28.6,94,30.16,5.0,SSE,5.8,-,N/A,Rain,Freezing Rain,150,2013-01-28 07:35:00
2:55 AM,30.7,30.7,100,30.17,5.0,SE,5.8,-,N/A,Rain,Freezing Rain,140,2013-01-28 07:55:00
3:15 AM,31.3,31.5,100,30.16,4.0,SE,5.8,-,N/A,Rain,Freezing Rain,130,2013-01-28 08:15:00
3:35 AM,32.0,32.0,100,30.15,5.0,SE,4.6,-,N/A,Rain,Rain,140,2013-01-28 08:35:00
3:56 AM,32.0,32.2,100,30.13,4.0,SSE,3.5,-,N/A,Rain,Rain,150,2013-01-28 08:56:00
4:15 AM,32.2,32.4,100,30.12,5.0,SE,5.8,-,N/A,Rain,Rain,140,2013-01-28 09:15:00
4:35 AM,32.4,32.5,100,30.11,5.0,SSE,4.6,-,0.01,,Drizzle,150,2013-01-28 09:35:00
4:56 AM,32.5,32.5,100,30.11,5.0,SSE,5.8,-,0.01,,Overcast,150,2013-01-28 09:56:00
5:15 AM,32.9,32.9,100,30.09,5.0,SE,5.8,-,N/A,,Overcast,140,2013-01-28 10:15:00
5:35 AM,33.3,33.3,100,30.08,5.0,SSE,4.6,-,N/A,,Overcast,160,2013-01-28 10:35:00
5:55 AM,33.4,33.8,100,30.08,5.0,South,6.9,-,N/A,,Overcast,170,2013-01-28 10:55:00
6:15 AM,33.8,34.0,100,30.08,4.0,South,3.5,-,0.01,,Overcast,190,2013-01-28 11:15:00
6:35 AM,34.0,34.2,100,30.07,2.5,South,3.5,-,0.02,,Light Drizzle,180,2013-01-28 11:35:00
6:55 AM,34.7,34.7,100,30.07,2.5,SSW,6.9,-,0.04,,Light Drizzle,200,2013-01-28 11:55:00
7:15 AM,34.9,35.1,100,30.06,3.0,South,5.8,-,0.02,,Light Drizzle,180,2013-01-28 12:15:00
7:35 AM,35.1,35.2,100,30.06,4.0,South,6.9,-,0.05,,Overcast,180,2013-01-28 12:35:00
7:56 AM,35.6,35.6,100,30.05,2.5,South,5.8,-,0.07,Rain,Rain,180,2013-01-28 12:56:00
8:15 AM,35.8,36.0,100,30.04,3.0,South,6.9,-,0.02,,Overcast,180,2013-01-28 13:15:00
8:35 AM,36.1,36.1,100,30.04,4.0,South,8.1,-,0.08,Rain,Light Rain,190,2013-01-28 13:35:00
8:55 AM,36.5,36.7,100,30.03,4.0,SSW,6.9,-,0.11,Rain,Light Rain,200,2013-01-28 13:55:00
9:15 AM,36.9,37.0,100,30.03,2.5,SSW,5.8,-,0.02,,Heavy Drizzle,200,2013-01-28 14:15:00
9:35 AM,37.4,37.6,100,30.02,3.0,SW,5.8,18.4,0.06,Rain,Heavy Rain,220,2013-01-28 14:35:00
9:55 AM,-9999,-9999,N/A,30.01,5.0,SW,9.2,-,0.06,,Light Drizzle,220,2013-01-28 14:55:00
10:15 AM,39.2,39.2,100,30.00,7.0,SW,8.1,19.6,N/A,,Overcast,220,2013-01-28 15:15:00
10:35 AM,39.7,39.9,100,30.00,7.0,SW,9.2,21.9,N/A,,Overcast,220,2013-01-28 15:35:00
10:55 AM,40.3,40.5,100,30.01,4.0,SW,13.8,20.7,N/A,,Overcast,220,2013-01-28 15:55:00
11:15 AM,40.5,40.6,100,30.00,2.5,SW,10.4,17.3,N/A,,Overcast,220,2013-01-28 16:15:00
11:35 AM,40.6,40.8,100,30.00,5.0,SW,9.2,-,N/A,,Overcast,220,2013-01-28 16:35:00
11:55 AM,41.2,41.4,100,29.99,7.0,SW,5.8,16.1,N/A,,Overcast,230,2013-01-28 16:55:00
12:15 PM,41.5,41.7,100,29.98,7.0,SW,5.8,16.1,N/A,,Overcast,230,2013-01-28 17:15:00
12:35 PM,-9999,-9999,N/A,29.97,7.0,SW,11.5,17.3,N/A,,Overcast,230,2013-01-28 17:35:00
12:56 PM,42.3,42.4,100,29.96,7.0,SW,8.1,19.6,N/A,,Overcast,230,2013-01-28 17:56:00
1:35 PM,42.8,42.8,100,29.95,5.0,SW,8.1,-,N/A,,Overcast,220,2013-01-28 18:35:00
1:56 PM,42.8,42.8,100,29.94,3.0,SW,8.1,-,N/A,,Light Drizzle,230,2013-01-28 18:56:00
2:15 PM,42.8,43.0,100,29.94,5.0,SW,8.1,-,N/A,,Overcast,230,2013-01-28 19:15:00
2:35 PM,43.2,43.3,100,29.93,2.5,SSW,5.8,16.1,N/A,,Overcast,210,2013-01-28 19:35:00
2:55 PM,43.3,43.5,100,29.93,4.0,SW,11.5,-,N/A,,Overcast,230,2013-01-28 19:55:00
3:15 PM,43.7,43.7,100,29.94,2.5,SW,6.9,-,N/A,Rain,Light Rain,230,2013-01-28 20:15:00
3:35 PM,43.7,43.9,100,29.95,2.5,SW,10.4,-,N/A,,Overcast,230,2013-01-28 20:35:00
3:56 PM,44.1,44.2,100,29.95,1.5,SW,6.9,16.1,N/A,Rain,Rain,230,2013-01-28 20:56:00
4:15 PM,44.2,44.4,100,29.95,1.2,SW,8.1,-,N/A,,Drizzle,230,2013-01-28 21:15:00
4:35 PM,44.2,44.4,100,29.95,0.8,SW,9.2,-,N/A,,Drizzle,230,2013-01-28 21:35:00
4:55 PM,44.6,44.6,100,29.95,1.0,WSW,8.1,-,N/A,,Drizzle,240,2013-01-28 21:55:00
5:15 PM,45.0,45.3,100,29.96,1.2,WSW,8.1,-,N/A,,Overcast,240,2013-01-28 22:15:00
5:35 PM,-9999,-9999,N/A,29.96,1.8,WSW,8.1,17.3,N/A,,Overcast,240,2013-01-28 22:35:00
5:56 PM,45.5,45.5,100,29.96,1.8,WSW,8.1,-,N/A,,Overcast,240,2013-01-28 22:56:00
6:15 PM,45.5,45.7,100,29.97,1.2,SW,6.9,-,N/A,,Overcast,230,2013-01-28 23:15:00
6:35 PM,45.7,45.9,100,29.98,1.2,SW,8.1,-,N/A,,Overcast,230,2013-01-28 23:35:00
6:56 PM,45.7,45.9,100,29.99,1.2,SW,6.9,-,N/A,,Overcast,230,2013-01-28 23:56:00
7:15 PM,46.0,46.0,100,29.99,1.5,WSW,9.2,-,N/A,,Light Drizzle,240,2013-01-29 00:15:00
7:35 PM,46.4,46.4,100,29.99,1.5,WSW,8.1,-,0.01,,Drizzle,240,2013-01-29 00:35:00
7:55 PM,46.4,46.4,100,30.00,1.5,WSW,8.1,-,0.01,,Drizzle,240,2013-01-29 00:55:00
8:15 PM,46.4,46.4,100,30.00,1.2,SW,8.1,-,N/A,,Drizzle,230,2013-01-29 01:15:00
8:35 PM,46.4,46.4,100,30.00,1.5,WSW,5.8,-,N/A,,Drizzle,240,2013-01-29 01:35:00
8:56 PM,46.4,46.6,100,30.00,1.5,WSW,6.9,-,N/A,,Drizzle,240,2013-01-29 01:56:00
9:15 PM,46.4,46.6,100,30.00,1.5,WSW,8.1,-,0.01,,Light Drizzle,240,2013-01-29 02:15:00
9:35 PM,46.4,46.6,100,30.01,1.5,WSW,5.8,-,0.01,,Light Drizzle,240,2013-01-29 02:35:00
9:55 PM,46.6,46.8,100,30.00,1.5,WSW,6.9,-,0.01,,Light Drizzle,240,2013-01-29 02:55:00
10:15 PM,46.6,46.8,100,30.00,1.2,WSW,5.8,-,N/A,,Light Drizzle,240,2013-01-29 03:15:00
10:35 PM,46.4,46.6,100,30.01,1.0,WSW,6.9,-,N/A,,Overcast,240,2013-01-29 03:35:00
10:55 PM,46.4,46.6,100,30.01,1.0,WSW,6.9,-,N/A,,Light Drizzle,240,2013-01-29 03:55:00
11:15 PM,46.4,46.6,100,30.02,0.8,WSW,6.9,-,N/A,,Light Drizzle,240,2013-01-29 04:15:00
11:35 PM,46.6,46.8,100,30.02,0.8,WSW,5.8,-,N/A,,Drizzle,240,2013-01-29 04:35:00
11:55 PM,46.6,46.8,100,30.02,0.8,WSW,4.6,-,0.01,,Drizzle,240,2013-01-29 04:55:00